Terug naar catalogus

SL-3 R/B

ActiefSSO
NORAD 19046·ROCKET BODY·🇷🇺 Russia

Gelanceerd Apr 20, 1988 vanaf Baikonur Cosmodrome

Loading…

Volgende Passages (komende 24 uur)

TLE

VersSource: Space-Track

Epoch: Sep 14, 2026, 21:41 UTC

1 19046U 88032B   26257.90353783  .00004024  00000-0  18099-3 0  9991
2 19046  97.5359 240.9392 0023456 295.5950  64.2862 15.21463427 80869

Volg SL-3 R/B in realtime met AllMySat

Download on the App Store